Regional Weather Roundup
Issued by NWS

Home | Current Version | Previous Version | Graphics & Text | Print | Product List | Glossary On
Versions: 1 2 3 4 5 6 7 8 9 10 11 12 13 14 15 16 17 18 19 20 21 22 23 24 25 26 27 28 29 30 31 32 33 34 35 36 37 38 39 40 41 42 43 44 45 46 47 48 49 50
000
ASUS45 KBOI 300610
RWRID
WEATHER ROUNDUP FOR IDAHO
NATIONAL WEATHER SERVICE BOISE ID
1200 AM MDT SAT AUG 30 2014

NOTE: "FAIR" INDICATES FEW OR NO CLOUDS BELOW 12000 FEET
WITH NO SIGNIFICANT WEATHER AND/OR OBSTRUCTIONS TO VISIBILITY

IDZ012-014-300700-
SOUTHWEST IDAHO


CITY           SKY/WX    TMP DP  RH WIND       PRES   REMARKS
BOISE          LGT RAIN  75  52  44 S12       29.82R
CALDWELL       CLOUDY    75  46  35 N3        29.81R
MOUNTAIN HOME  PTCLDY    72  47  41 CALM      29.80F
$$

IDZ016-017-300700-
SOUTHCENTRAL IDAHO


CITY           SKY/WX    TMP DP  RH WIND       PRES   REMARKS
BURLEY         MOCLDY    62  52  69 W5        29.89F
JEROME         PTCLDY    68  46  45 E7        29.88F
TWIN FALLS     PTCLDY    65  47  52 SE12      29.89F
$$

IDZ019>023-300700-
SOUTHEAST IDAHO


CITY           SKY/WX    TMP DP  RH WIND       PRES   REMARKS
IDAHO FALLS    MOCLDY    65  47  52 SW5       29.97S
POCATELLO      CLOUDY    67  43  41 E3        29.95S
REXBURG        PTCLDY    65  45  48 S7        29.97S
$$

IDZ006-010-011-018-031-032-300700-
CENTRAL IDAHO MOUNTAINS


CITY           SKY/WX    TMP DP  RH WIND       PRES   REMARKS
MCCALL         MOCLDY    63  43  48 N6        29.93R
HAILEY         CLOUDY    61  54  77 W9        30.02R
STANLEY          N/A     59  40  49 SE5       30.04F
SALMON         MOCLDY    61  52  72 S6        29.84S
CHALLIS        MOCLDY    68  40  35 VRB5      29.93S
$$

IDZ002-004-006-007-026-300700-
NORTHERN IDAHO


CITY           SKY/WX    TMP DP  RH WIND       PRES   REMARKS
LEWISTON       LGT RAIN  72  48  42 NW16G22   29.83R
LOWELL           N/A     64  52  64 N3        29.85R
COEUR D`ALENE  CLOUDY    66  41  39 W7        29.82S
MULLAN PASS    CLOUDY    54  36  50 SW7       29.98S
$$



USA.gov is the U.S. government's official web portal to all federal, state and local government web resources and services.